North Bennington, VT

9:48 PM EST on December 10, 2016 (GMT -0500)
Morse State

Weather History for KDDH - October, 2012

Change the Weather History Date:

Wednesday, October 31, 2012

  Actual Average Record
Temperature  
Mean Temperature 50 °F 43 °F  
Max Temperature 56 °F 53 °F 73 °F (2006)
Min Temperature 43 °F 33 °F 19 °F (2001)
Degree Days  
Heating Degree Days 15 22  
Month to date heating degree days 395 543  
Since 1 July heating degree days 610 821  
Cooling Degree Days 0 0  
Month to date cooling degree days 2 2  
Year to date cooling degree days 476 313  
Moisture  
Dew Point 40 °F    
Average Humidity 74    
Maximum Humidity 92    
Minimum Humidity 56    
Precipitation  
Precipitation 0.18 in 0.09 in 0.73 in (2013)
Month to date precipitation 4.25 3.69  
Year to date precipitation 28.86 34.80  
Sea Level Pressure  
Sea Level Pressure 29.48 in    
Wind  
Wind Speed 7 mph (SSW)    
Max Wind Speed 17 mph    
Max Gust Speed 24 mph    
Visibility 9 miles    
Events Rain    
T = Trace of Precipitation, MM = Missing Value Source: NWS Daily Summary

Daily Weather History Graph

Daily Weather History Graph

Search for Another Location

Airport or City:

Trip Planner

Search our weather history database for the weather conditions in past years. The results will help you decide how hot, cold, wet, or windy it might be!

Date:

Astronomy

Oct. 31, 2012 Rise Set
Actual Time 7:26 AM EDT 5:45 PM EDT
Civil Twilight 6:57 AM EDT 6:15 PM EDT
Nautical Twilight 6:23 AM EDT 6:48 PM EDT
Astronomical Twilight 5:50 AM EDT 7:21 PM EDT
Moon 6:52 PM EDT (10/31) 9:07 AM EDT (10/31)
Length of Visible Light 11h 18m
Length of Day
10h 19m
Full, 97% of the Moon is Illuminated
Oct 31
Full
Nov 6
Last Quarter
Nov 13
New
Nov 20
First Quarter
Nov 28
Full

Hourly Weather History & Observations

Time (EDT) Temp. Windchill Dew Point Humidity Pressure Visibility Wind Dir Wind Speed Gust Speed Precip Events Conditions
12:54 AM 54.0 °F - 46.0 °F 75% 29.47 in 10.0 mi South 3.5 mph - 0.00 in Rain Light Rain
1:54 AM 54.0 °F - 48.9 °F 83% 29.44 in 10.0 mi SE 6.9 mph - 0.01 in Rain Light Rain
2:54 AM 53.1 °F - 48.0 °F 83% 29.42 in 10.0 mi SE 8.1 mph - 0.01 in   Scattered Clouds
3:54 AM 55.9 °F - 48.0 °F 75% 29.41 in 10.0 mi ESE 6.9 mph - N/A   Overcast
4:54 AM 55.9 °F - 48.9 °F 77% 29.41 in 10.0 mi SE 9.2 mph - 0.00 in Rain Light Rain
5:43 AM 53.6 °F - 50.0 °F 88% 29.42 in 2.0 mi South 12.7 mph 18.4 mph 0.08 in Rain Rain
5:54 AM 53.1 °F - 48.0 °F 83% 29.42 in 7.0 mi South 12.7 mph 23.0 mph 0.09 in Rain Light Rain
6:02 AM 51.8 °F - 48.2 °F 88% 29.43 in 7.0 mi SSW 13.8 mph - 0.00 in Rain Light Rain
6:30 AM 46.4 °F 41.5 °F 42.8 °F 87% 29.44 in 5.0 mi WSW 10.4 mph - 0.03 in Rain Light Rain
6:54 AM 44.1 °F 38.6 °F 41.0 °F 89% 29.46 in 6.0 mi WSW 10.4 mph 19.6 mph 0.04 in Rain Light Rain
7:54 AM 45.0 °F - 42.1 °F 90% 29.48 in 7.0 mi Calm Calm - 0.02 in Rain Light Rain
8:32 AM 44.6 °F 43.1 °F 42.8 °F 93% 29.48 in 10.0 mi Variable 3.5 mph - 0.01 in Rain Light Rain
8:54 AM 45.0 °F 43.5 °F 42.1 °F 90% 29.49 in 10.0 mi NNW 3.5 mph - 0.01 in Rain Light Rain
9:54 AM 46.9 °F - 42.1 °F 83% 29.48 in 10.0 mi Variable 3.5 mph - 0.01 in   Overcast
10:54 AM 48.9 °F - 39.0 °F 69% 29.48 in 10.0 mi SSW 12.7 mph - N/A   Scattered Clouds
11:54 AM 51.1 °F - 37.9 °F 61% 29.47 in 10.0 mi SSE 12.7 mph 18.4 mph N/A   Overcast
12:54 PM 50.0 °F - 36.0 °F 59% 29.47 in 10.0 mi South 9.2 mph 19.6 mph N/A   Overcast
1:54 PM 50.0 °F - 35.1 °F 57% 29.47 in 10.0 mi SSW 11.5 mph - N/A   Overcast
2:54 PM 48.9 °F - 36.0 °F 61% 29.48 in 10.0 mi SW 10.4 mph - N/A   Overcast
3:54 PM 48.9 °F - 36.0 °F 61% 29.49 in 10.0 mi WSW 6.9 mph - N/A   Overcast
4:54 PM 46.9 °F - 35.1 °F 63% 29.49 in 10.0 mi WSW 5.8 mph - N/A   Overcast
5:54 PM 46.0 °F 43.1 °F 35.1 °F 66% 29.50 in 10.0 mi SSW 5.8 mph - N/A   Overcast
6:54 PM 45.0 °F 41.8 °F 35.1 °F 68% 29.52 in 10.0 mi SW 5.8 mph - N/A   Mostly Cloudy
7:54 PM 45.0 °F 40.6 °F 36.0 °F 71% 29.53 in 10.0 mi South 8.1 mph - N/A   Overcast
8:45 PM 44.6 °F 43.1 °F 35.6 °F 71% 29.52 in 10.0 mi SSW 3.5 mph - N/A   Overcast
8:54 PM 45.0 °F 43.5 °F 36.0 °F 71% 29.53 in 10.0 mi SSW 3.5 mph - N/A   Overcast
9:04 PM 44.6 °F - 35.6 °F 71% 29.52 in 10.0 mi Calm Calm - N/A   Overcast
10:54 PM 44.1 °F 42.5 °F 34.0 °F 68% 29.53 in 10.0 mi SW 3.5 mph - N/A   Overcast
11:37 PM 44.6 °F 41.4 °F 33.8 °F 66% 29.52 in 10.0 mi South 5.8 mph - N/A   Overcast
11:54 PM 44.1 °F 41.5 °F 34.0 °F 68% 29.52 in 10.0 mi Variable 4.6 mph - N/A   Overcast